This demonstration page uses our WeatherBlox Daily Observations layout. Learn more.

Left ArrowRight Arrow

40.92501, -98.34201

Hourly Observations for June 28, 2020

Temp ( °F °C ) Dew Point ( °F °C ) Humidity (%) Winds ( mph kmh ) Pressure ( in mb ) Visibility ( mi km ) Precip ( " mm )
12:53 am 00:53 Partly Cloudy 74 23.3 67 19.4 79 79 ESE 10 17 29.63 1003 10 16 0.00 0.00
1:21 am 01:21 Mostly Cloudy with Thunderstorms 74 23.3 68 20 82 82 SE 16 26 29.57 1001 10 16 0.00 0.00
1:28 am 01:28 Mostly Cloudy with Strong Thunderstorms 73 22.8 69 20.6 87 87 SSE 25 41 29.58 1002 2 3 0.00 0.00
1:34 am 01:34 Mostly Cloudy with Strong Thunderstorms 73 22.8 69 20.6 87 87 SE 22 35 29.60 1002 1 1 0.16 4.06
1:38 am 01:38 Cloudy with Thunderstorms 73 22.8 70 21.1 90 90 S 15 24 29.61 1003 1 2 0.40 10.16
1:41 am 01:41 Cloudy with Thunderstorms 74 23.3 70 21.1 88 88 SSE 14 22 29.62 1003 3 4 0.41 10.41
1:47 am 01:47 Cloudy with Strong Thunderstorms 72 22 70 21 94 94 S 29 46 29.65 1004 3 5 0.42 10.67
1:48 am 01:48 Cloudy with Strong Thunderstorms 72 22 68 20 88 88 S 29 46 29.65 1004 3 4 0.43 10.92
1:53 am 01:53 Cloudy with Thunderstorms 69 20.6 65 18.3 87 87 SSW 15 24 29.65 1004 2 3 0.47 11.94
1:58 am 01:58 Cloudy with Thunderstorms 69 20.6 64 17.8 84 84 SW 22 35 29.61 1003 3 5 0.02 0.51
2:27 am 02:27 Cloudy with Light Rain 68 20 63 17.2 84 84 E 12 19 29.65 1004 10 16 0.05 1.27
2:38 am 02:38 Mostly Cloudy with Nearby Thunderstorms 68 20 64 17.8 87 87 E 18 30 29.63 1003 10 16 0.05 1.27
2:53 am 02:53 Windy with Storms Likely 68 20 63 17.2 84 84 ENE 20 31 29.59 1002 9 14 0.06 1.52
3:08 am 03:08 Mostly Cloudy with Light Rain 68 20 63 17.2 84 84 E 20 31 29.55 1001 10 16 0.01 0.25
3:29 am 03:29 Mostly Cloudy with Nearby Thunderstorms 68 20 63 17.2 84 84 S 10 17 29.57 1001 10 16 0.01 0.25
3:44 am 03:44 Mostly Cloudy with Light Rain 68 20 63 17.2 84 84 SSW 8 13 29.58 1002 10 16 0.01 0.25
3:53 am 03:53 Mostly Cloudy with Light Rain 68 20 63 17.2 84 84 SSW 10 17 29.60 1003 10 16 0.01 0.25
4:53 am 04:53 Partly Cloudy with Light Rain 68 20 64 17.8 87 87 NNE 8 13 29.63 1004 10 16 0.02 0.51
5:53 am 05:53 Partly Cloudy 67 19.4 64 17.8 91 91 Calm 29.64 1004 10 16 0.00 0.00
6:53 am 06:53 Sunny 68 20 63 17.2 84 84 E 7 11 29.58 1002 10 16 0.00 0.00
7:53 am 07:53 Sunny 68 20 63 17.2 84 84 SSE 12 19 29.60 1002 10 16 0.00 0.00
8:53 am 08:53 Sunny 73 22.8 66 18.9 79 79 S 16 26 29.60 1002 10 16 0.00 0.00
9:53 am 09:53 Sunny 77 25 68 20 74 74 SSE 13 20 29.59 1002 9 14 0.00 0.00
10:53 am 10:53 Sunny 81 27.2 70 21.1 69 69 S 17 28 29.57 1002 7 11 0.00 0.00
11:53 am 11:53 Hazy 85 29.4 70 21.1 61 61 S 14 22 29.56 1001 6 10 0.00 0.00
12:53 pm 12:53 Hazy 87 30.6 71 21.7 59 59 S 12 19 29.55 1001 6 10 0.00 0.00
1:35 pm 13:35 Mostly Cloudy with Haze 86 30 71 21.7 61 61 S 10 17 29.48 998 6 10 0.00 0.00
1:53 pm 13:53 Mostly Cloudy with Haze 86 30 71 21.7 61 61 S 16 26 29.55 1001 6 10 0.00 0.00
2:19 pm 14:19 Mostly Cloudy with Haze 88 31.1 71 21.7 57 57 SSE 17 28 29.46 998 6 10 0.00 0.00
2:32 pm 14:32 Mostly Cloudy with Haze 86 30 71 21.7 61 61 SSE 15 24 29.47 998 6 10 0.00 0.00
2:41 pm 14:41 Mostly Cloudy with Haze 85 29.4 71 21.7 63 63 SSE 20 31 29.47 998 6 10 0.00 0.00
2:53 pm 14:53 Mostly Cloudy with Haze 86 30 71 21.7 61 61 SE 18 30 29.55 1001 6 10 0.00 0.00
3:53 pm 15:53 Hazy 88 31.1 71 21.7 57 57 SSE 16 26 29.53 1000 6 10 0.00 0.00
4:53 pm 16:53 Mostly Sunny 88 31.1 71 21.7 57 57 SE 17 28 29.54 1000 7 11 0.00 0.00
5:53 pm 17:53 Hazy 88 31.1 71 21.7 57 57 SSE 18 30 29.53 1000 6 10 0.00 0.00
6:53 pm 18:53 Hazy 87 30.6 71 21.7 59 59 SSE 14 22 29.52 1000 6 10 0.00 0.00
7:53 pm 19:53 Hazy 85 29.4 72 22.2 65 65 SE 9 15 29.52 1000 6 10 0.00 0.00
8:53 pm 20:53 Hazy 83 28.3 72 22.2 70 70 SE 9 15 29.52 1000 6 10 0.00 0.00
9:53 pm 21:53 Clear 80 26.7 72 22.2 76 76 SE 9 15 29.53 1000 7 11 0.00 0.00
10:53 pm 22:53 Clear 80 26.7 72 22.2 76 76 SSE 12 19 29.54 1000 7 11 0.00 0.00
11:53 pm 23:53 Clear 80 26.7 71 21.7 74 74 S 16 26 29.54 1001 7 11 0.00 0.00

Powered by AerisWeather